FW6805 Weather Reports


time (UTC)temp
F
wind
direction
speed
knots
gust
knots
rain 1hr
in
rain 24hr
in
rain mn
in
humidity
%
barometer
mb
20260508122102 41 296 6.1 8.7 0.00 0.00 0.00 67 932.5
20260508121055 42 286 6.1 8.7 0.00 0.00 0.00 68 932.4
20260508120026 42 265 6.1 8.7 0.00 0.00 0.00 70 932.3
20260508115020 42 275 6.1 8.7 0.00 0.00 0.00 71 932.2
20260508114043 40 244 3.5 4.3 0.00 0.00 0.00 77 932.2
20260508113056 40 167 0.9 0.9 0.00 0.00 0.00 78 932.1
20260508112050 39 0.0 0.0 0.00 0.00 0.00 79 932.1
20260508111043 39 157 0.0 0.9 0.00 0.00 0.00 77 932.2
20260508110107 40 147 0.0 0.9 0.00 0.00 0.00 77 932.1
20260508105037 41 154 0.9 2.6 0.00 0.00 0.00 76 932.1
20260508104031 40 161 0.0 0.9 0.00 0.00 0.00 76 932.2
20260508103022 39 160 0.0 0.9 0.00 0.00 0.00 69 932.3
20260508102048 40 0.0 0.0 0.00 0.00 0.00 64 932.3
20260508101039 40 0.0 0.0 0.00 0.00 0.00 64 932.4
20260508100053 39 0.0 0.0 0.00 0.00 0.00 74 932.3
20260508095023 39 0.0 0.0 0.00 0.00 0.00 68 932.3
20260508094019 40 0.0 0.0 0.00 0.00 0.00 66 932.4
20260508093040 40 162 0.9 0.9 0.00 0.00 0.00 67 932.4
20260508092034 40 0.0 0.0 0.00 0.00 0.00 73 932.4
20260508091025 40 0.0 0.0 0.00 0.00 0.00 75 932.4
20260508090018 40 0.0 0.0 0.00 0.00 0.00 74 932.5
20260508085043 41 164 0.0 0.9 0.00 0.00 0.00 74 932.6
20260508084035 41 164 0.9 2.6 0.00 0.00 0.00 72 932.6
20260508083029 42 165 0.9 2.6 0.00 0.00 0.00 70 932.8
20260508082020 42 173 0.9 2.6 0.00 0.00 0.00 64 932.9
20260508081045 42 176 0.9 2.6 0.00 0.00 0.00 61 933.0
20260508080036 42 165 0.9 0.9 0.00 0.00 0.00 59 933.1
20260508075030 42 163 0.9 2.6 0.00 0.00 0.00 61 933.1
20260508074021 43 180 1.7 2.6 0.00 0.00 0.00 64 933.2
20260508073107 43 181 1.7 2.6 0.00 0.00 0.00 65 933.3
20260508072058 43 188 1.7 2.6 0.00 0.00 0.00 68 933.3
20260508071031 44 178 0.9 2.6 0.00 0.00 0.00 71 933.5
20260508070023 43 151 0.9 2.6 0.00 0.00 0.00 73 933.6
20260508065048 44 166 0.9 2.6 0.00 0.00 0.00 74 933.4
20260508064040 45 0.0 0.0 0.00 0.00 0.00 68 933.3
20260508063032 45 165 0.9 0.9 0.00 0.00 0.00 68 933.5
20260508062026 45 167 0.9 0.9 0.00 0.00 0.00 63 933.5
20260508061017 46 168 0.9 0.9 0.00 0.00 0.00 68 933.5
20260508060043 47 164 0.9 0.9 0.00 0.00 0.00 64 933.4
20260508055033 48 165 0.9 0.9 0.00 0.00 0.00 52 933.6
20260508054027 48 157 0.0 0.9 0.00 0.00 0.00 49 933.6
20260508053019 49 0.0 0.0 0.00 0.00 0.00 46 933.5
20260508052044 50 157 0.0 0.9 0.00 0.00 0.00 42 933.6
20260508051035 49 159 0.0 0.9 0.00 0.00 0.00 44 933.7
20260508050029 49 162 0.9 2.6 0.00 0.00 0.00 47 933.6
20260508045020 49 164 0.9 2.6 0.00 0.00 0.00 52 933.7
20260508044045 50 161 0.9 2.6 0.00 0.00 0.00 54 933.7
20260508043036 50 0.0 0.0 0.00 0.00 0.00 50 933.8
20260508042030 50 0.0 0.0 0.00 0.00 0.00 42 933.9
20260508041023 50 159 0.0 0.9 0.00 0.00 0.00 49 934.0
20260508040047 51 154 0.0 0.9 0.00 0.00 0.00 47 934.0
20260508035040 51 0.0 0.0 0.00 0.00 0.00 46 933.8
20260508034051 51 0.0 0.0 0.00 0.00 0.00 41 933.7
20260508033025 51 131 0.0 0.9 0.00 0.00 0.00 36 933.8
20260508032016 52 115 0.9 2.6 0.00 0.00 0.00 35 933.8
20260508031041 52 105 1.7 3.5 0.00 0.00 0.00 34 933.8
20260508030033 53 97 2.6 4.3 0.00 0.00 0.00 33 933.7
20260508025026 54 78 2.6 4.3 0.00 0.00 0.00 32 933.6
20260508024017 55 76 3.5 4.3 0.00 0.00 0.00 30 933.5
20260508023103 56 57 4.3 7.0 0.00 0.00 0.00 29 933.4
20260508022036 57 114 1.7 2.6 0.00 0.00 0.00 29 933.2
20260508021027 57 86 2.6 4.3 0.00 0.00 0.00 28 933.1
20260508020020 57 91 2.6 7.0 0.00 0.00 0.00 29 932.9
20260508015044 58 81 2.6 3.5 0.00 0.00 0.00 28 932.8
20260508014037 59 81 2.6 4.3 0.00 0.00 0.00 27 932.8
20260508013028 59 67 2.6 4.3 0.00 0.00 0.00 26 932.8
20260508012022 60 69 2.6 7.0 0.00 0.00 0.00 25 932.8
20260508011046 61 54 4.3 7.0 0.00 0.00 0.00 25 932.6
20260508010039 62 4 6.1 9.6 0.00 0.00 0.00 25 932.6
20260508005034 62 11 4.3 6.1 0.00 0.00 0.00 25 932.6
20260508004023 62 1 6.1 10.4 0.00 0.00 0.00 25 932.5
20260508003047 63 355 6.1 9.6 0.00 0.00 0.00 24 932.5
20260508002040 64 1 5.2 9.6 0.00 0.00 0.00 22 932.5
20260508001031 63 343 6.1 9.6 0.00 0.00 0.00 22 932.5
20260508000024 63 352 7.0 9.6 0.00 0.00 0.00 22 932.5
20260507235018 65 8 7.8 10.4 0.00 0.00 0.00 21 932.5
20260507234041 65 334 7.8 12.2 0.00 0.00 0.00 21 932.6
20260507233035 64 308 7.0 9.6 0.00 0.00 0.00 21 932.6
20260507232030 65 301 7.0 13.9 0.00 0.00 0.00 23 932.6
20260507231040 64 313 7.8 15.6 0.00 0.00 0.00 23 932.6
20260507230043 63 290 8.7 13.0 0.00 0.00 0.00 29 932.6
20260507225036 63 254 6.1 10.4 0.00 0.00 0.00 31 932.6
20260507224027 64 284 6.1 10.4 0.00 0.00 0.00 29 932.6
20260507223021 63 254 9.6 13.0 0.00 0.00 0.00 30 932.7
20260507222044 64 275 7.0 13.0 0.00 0.00 0.00 25 933.0
20260507221037 64 355 7.0 12.2 0.00 0.00 0.00 21 932.9
20260507220028 64 287 7.8 13.9 0.00 0.00 0.00 24 933.1
20260507215022 64 320 5.2 8.7 0.00 0.00 0.00 21 933.2
20260507214047 64 311 7.0 12.2 0.00 0.00 0.00 21 933.2
20260507213038 63 320 7.8 15.6 0.00 0.00 0.00 22 933.5
20260507212032 63 272 5.2 13.9 0.00 0.00 0.00 24 933.5
20260507211023 62 305 7.0 13.9 0.00 0.00 0.00 23 933.6
20260507210049 63 203 5.2 7.0 0.00 0.00 0.00 26 933.7
20260507205040 62 276 6.1 13.0 0.00 0.00 0.00 24 933.8
20260507204033 62 260 6.1 8.7 0.00 0.00 0.00 28 933.9
20260507203105 62 263 7.0 13.9 0.00 0.00 0.00 25 934.0
20260507202022 62 284 8.7 13.0 0.00 0.00 0.00 29 934.2
20260507201041 61 255 5.2 8.7 0.00 0.00 0.00 23 934.2
20260507200034 61 274 7.0 13.0 0.00 0.00 0.00 28 934.2
20260507195026 61 239 4.3 8.7 0.00 0.00 0.00 25 934.3
20260507194019 61 246 6.1 10.4 0.00 0.00 0.00 25 934.4
20260507193105 60 293 7.8 15.6 0.00 0.00 0.00 25 934.4
20260507192036 59 263 7.0 12.2 0.00 0.00 0.00 27 934.5
20260507191029 60 257 5.2 8.7 0.00 0.00 0.00 24 934.6
20260507190041 60 318 7.8 12.2 0.00 0.00 0.00 25 934.5
20260507185046 59 299 6.1 9.6 0.00 0.00 0.00 23 934.5
20260507184037 59 263 3.5 8.7 0.00 0.00 0.00 23 934.6
20260507183031 59 283 5.2 8.7 0.00 0.00 0.00 28 934.7
20260507182022 58 232 3.5 7.0 0.00 0.00 0.00 25 934.9
20260507181047 58 233 4.3 7.0 0.00 0.00 0.00 25 934.9
20260507180041 58 230 4.3 7.0 0.00 0.00 0.00 26 935.1
20260507175032 58 228 3.5 8.7 0.00 0.00 0.00 27 935.3
20260507174023 57 228 3.5 6.1 0.00 0.00 0.00 27 935.3
20260507173017 57 232 3.5 6.1 0.00 0.00 0.00 27 935.3
20260507172102 56 242 4.3 7.0 0.00 0.00 0.00 25 935.4
20260507171033 57 337 6.1 13.9 0.00 0.00 0.00 25 935.5
20260507170027 56 321 3.5 9.6 0.00 0.00 0.00 27 935.4
20260507165018 56 246 6.1 10.4 0.00 0.00 0.00 28 935.5
20260507164104 55 271 4.3 7.0 0.00 0.00 0.00 31 935.6
20260507163039 55 188 2.6 4.3 0.00 0.00 0.00 31 935.7
20260507162028 55 197 3.5 7.0 0.00 0.00 0.00 32 935.9
20260507161019 54 291 3.5 6.1 0.00 0.00 0.00 34 935.9
20260507160045 52 221 3.5 6.1 0.00 0.00 0.00 39 936.1
20260507155038 51 198 1.7 3.5 0.00 0.00 0.00 42 936.1
20260507154029 50 176 1.7 4.3 0.00 0.00 0.00 44 936.0
20260507153021 49 175 2.6 3.5 0.00 0.00 0.00 46 936.2
20260507152046 47 193 2.6 3.5 0.00 0.00 0.00 49 936.2
20260507151040 46 208 2.6 3.5 0.00 0.00 0.00 50 936.2
20260507150031 44 183 2.6 4.3 0.00 0.00 0.00 52 936.3
20260507145024 44 195 2.6 4.3 0.00 0.00 0.00 53 936.4
20260507144108 42 210 2.6 4.3 0.00 0.00 0.00 54 936.3
20260507143101 42 222 2.6 4.3 0.00 0.00 0.00 56 936.4
20260507142036 41 227 2.6 4.3 0.00 0.00 0.00 58 936.3
20260507141025 39 174 1.7 3.5 0.00 0.00 0.00 59 936.3
20260507140017 38 161 1.7 2.6 0.00 0.00 0.00 68 936.2
20260507135042 36 188 1.7 3.5 0.00 0.00 0.00 70 936.2
20260507134033 35 204 2.6 4.3 0.00 0.00 0.00 74 936.3
20260507133047 35 247 2.6 4.3 0.00 0.00 0.00 76 936.2
20260507132020 34 251 2.6 3.5 0.00 0.00 0.00 79 936.1
20260507131124 33 199 1.7 3.5 0.00 0.00 0.00 78 936.1
20260507130036 33 174 1.7 2.6 0.00 0.00 0.00 75 936.0
20260507125030 34 156 0.0 0.9 0.00 0.00 0.00 70 935.8
20260507124021 33 157 0.0 0.9 0.00 0.00 0.00 69 935.8
20260507123045 32 145 0.0 0.9 0.00 0.00 0.00 70 935.9